Simultaneous Nadir Overpasses (SNOs) Predictions

Prediction of SNOs between AURA and NPP Satellite Orbit:

Table of predicted SNOs for the next 14.0 days since TLE Epoch: 4/19/2014
Index Date (AURA) Time (AURA) Lat,Lon (AURA) SZA (AURA ) Date (NPP) Time (NPP) Lat,Lon (NPP) SZA (NPP ) Distance(km) Time Diff (sec)
1 04/20/2014 00:25:10 -77.53,-119.73 96.29 04/20/2014 00:24:38 -77.54,-119.65 96.28 1.95 32
2 04/20/2014 01:14:24 78.04, 50.15 83.07 04/20/2014 01:15:10 78.05, 50.24 83.01 2.15 46
3 04/22/2014 16:41:41 -77.59, -3.60 97.28 04/22/2014 16:41:37 -77.60, -3.61 97.28 0.24 4
4 04/22/2014 17:30:38 78.83, 170.01 81.14 04/22/2014 17:31:52 78.76, 170.15 81.07 8.09 74
5 04/25/2014 08:08:55 77.28, -56.66 82.23 04/25/2014 08:07:59 77.29, -56.57 82.25 2.40 56
6 04/25/2014
